Weather History for San Carlos, CA

Change the Weather History Date:

Tuesday, January 8, 2013

  Actual Average Record
Temperature  
Mean Temperature 50 °F -  
Max Temperature 59 °F 56 °F 75 °F (1962)
Min Temperature 42 °F 40 °F 29 °F (1955)
Degree Days  
Heating Degree Days 14    
Moisture  
Dew Point 45 °F    
Average Humidity 90    
Maximum Humidity 100    
Minimum Humidity 67    
Precipitation  
Precipitation 0.00 in - - ()
Sea Level Pressure  
Sea Level Pressure 30.19 in    
Wind  
Wind Speed 1 mph (NNW)    
Max Wind Speed 5 mph    
Max Gust Speed -    
Visibility 10 miles    
Events      
Averages and records for this station are not official NWS values.
T = Trace of Precipitation, MM = Missing Value Source: NWS Daily Summary

Daily Weather History Graph

Daily Weather History Graph

Search for Another Location

Airport:

Trip Planner

Search our weather history database for the weather conditions in past years. The results will help you decide how hot, cold, wet, or windy it might be!

Date:

Astronomy

Jan. 08, 2013 Rise Set
Actual Time 7:23 AM PST 5:08 PM PST
Civil Twilight 6:55 AM PST 5:36 PM PST
Nautical Twilight 6:22 AM PST 6:09 PM PST
Astronomical Twilight 5:51 AM PST 6:41 PM PST
Moon 4:03 AM PST (1/8) 2:15 PM PST (1/8)
Length of Visible Light 10h 41m
Length of Day
9h 44m
Waning Crescent, 13% of the Moon is Illuminated
Jan 8
Waning Crescent
Jan 11
New
Jan 18
First Quarter
Jan 26
Full
Feb 3
Last Quarter

Hourly Weather History & Observations

Time (PST) Temp. Windchill Dew Point Humidity Pressure Visibility Wind Dir Wind Speed Gust Speed Precip Events Conditions
12:15 AM 48.2 °F - 46.4 °F 93% 30.20 in 10.0 mi Calm Calm - N/A   Clear
12:35 AM 46.4 °F - 46.4 °F 100% 30.20 in 10.0 mi Calm Calm - N/A   Clear
12:50 AM 46.4 °F 45.2 °F 44.6 °F 93% 30.20 in 10.0 mi WNW 3.5 mph - N/A   Clear
1:15 AM 46.4 °F - 44.6 °F 93% 30.21 in 10.0 mi Calm Calm - N/A   Partly Cloudy
1:35 AM 46.4 °F - 44.6 °F 93% 30.21 in 10.0 mi Calm Calm - N/A   Partly Cloudy
1:55 AM 44.6 °F - 44.6 °F 100% 30.21 in 10.0 mi Calm Calm - N/A   Clear
2:15 AM 44.6 °F - 42.8 °F 93% 30.20 in 10.0 mi Calm Calm - N/A   Clear
2:35 AM 44.6 °F - 42.8 °F 93% 30.20 in 10.0 mi Calm Calm - N/A   Clear
2:55 AM 44.6 °F - 42.8 °F 93% 30.20 in 10.0 mi Calm Calm - N/A   Clear
3:15 AM 44.6 °F - 42.8 °F 93% 30.20 in 10.0 mi Calm Calm - N/A   Clear
3:35 AM 44.6 °F - 42.8 °F 93% 30.20 in 10.0 mi Calm Calm - N/A   Clear
4:15 AM 42.8 °F 40.1 °F 42.8 °F 100% 30.20 in 10.0 mi NW 4.6 mph - N/A   Clear
4:35 AM 44.6 °F 43.1 °F 44.6 °F 100% 30.20 in 10.0 mi NW 3.5 mph - N/A   Partly Cloudy
4:55 AM 44.6 °F - 44.6 °F 100% 30.20 in 10.0 mi Calm Calm - N/A   Mostly Cloudy
5:35 AM 44.6 °F 43.1 °F 44.6 °F 100% 30.19 in 5.0 mi West 3.5 mph - N/A   Overcast
6:15 AM 44.6 °F - 44.6 °F 100% 30.20 in 1.5 mi Calm Calm - N/A   Overcast
6:35 AM 44.6 °F - 44.6 °F 100% 30.20 in 2.0 mi North - - N/A   Overcast
6:49 AM 46.4 °F - 46.4 °F 100% 30.20 in 5.0 mi Calm Calm - N/A   Scattered Clouds
6:55 AM 46.4 °F - 46.4 °F 100% 30.21 in 5.0 mi Calm Calm - N/A   Mostly Cloudy
7:53 AM 44.6 °F - 44.6 °F 100% 30.23 in 6.0 mi Calm Calm - N/A   Scattered Clouds
8:47 AM 48.2 °F - 46.4 °F 93% 30.24 in 6.0 mi Calm Calm - N/A   Haze
10:47 AM 50.0 °F - 48.2 °F 94% 30.25 in 5.0 mi Calm Calm - N/A   Haze
1:54 PM 57.2 °F - 48.2 °F 72% 30.17 in 15.0 mi ENE 3.5 mph - N/A   Partly Cloudy
2:50 PM 59.0 °F - 48.2 °F 67% 30.17 in 15.0 mi East 3.5 mph - N/A   Partly Cloudy
3:47 PM 57.2 °F - 48.2 °F 72% 30.16 in 15.0 mi NNE 3.5 mph - N/A   Scattered Clouds
4:47 PM 55.4 °F - 46.4 °F 72% 30.14 in 15.0 mi NNE 3.5 mph - N/A   Mostly Cloudy
5:49 PM 55.4 °F - 44.6 °F 67% 30.15 in 15.0 mi Calm Calm - N/A   Mostly Cloudy
6:49 PM 51.8 °F - 44.6 °F 76% 30.15 in 15.0 mi Calm Calm - N/A   Clear
9:55 PM 48.2 °F - 44.6 °F 87% 30.16 in 10.0 mi Calm Calm - N/A   Clear
10:15 PM 46.4 °F - 44.6 °F 93% 30.16 in 9.0 mi Calm Calm - N/A   Clear
10:35 PM 46.4 °F - 42.8 °F 87% 30.17 in 10.0 mi Calm Calm - N/A   Clear
10:55 PM 46.4 °F 45.2 °F 42.8 °F 87% 30.16 in 10.0 mi NW 3.5 mph - N/A   Clear
11:15 PM 46.4 °F - 42.8 °F 87% 30.16 in 10.0 mi Calm Calm - N/A   Clear
11:35 PM 46.4 °F 45.2 °F 42.8 °F 87% 30.16 in 10.0 mi SW 3.5 mph - N/A   Clear
11:55 PM 46.4 °F - 42.8 °F 87% 30.17 in 10.0 mi Calm Calm - N/A   Clear